This is the latest recevied weather packets stored in our database for station/object SV9TNF-52. If no packets are shown the sender has not sent any weather packets the latest 10 day(s).
| Time | Temp. | Humidity | Pressure | Rain* | Wind** | Luminosity | Snow |
|---|---|---|---|---|---|---|---|
| 1788271698 | 30.56° C | 52% | 1019.3 hPa | 0 mm | 7.6 m/s, 338° | - | - |
| 1788271398 | 30.56° C | 52% | 1019.3 hPa | 0 mm | 1.34 m/s, 158° | - | - |
| 1788271098 | 29.44° C | 53% | 1019.3 hPa | 0 mm | 4.92 m/s, 332° | - | - |
| 1788270798 | 28.89° C | 54% | 1019.3 hPa | 0 mm | 8.05 m/s, 97° | - | - |
| 1788270498 | 28.89° C | 55% | 1019.3 hPa | 0 mm | 13.41 m/s, 33° | - | - |
| 1788270198 | 29.44° C | 55% | 1019.3 hPa | 0 mm | 7.6 m/s, 9° | - | - |
| 1788269898 | 29.44° C | 55% | 1019.3 hPa | 0 mm | 7.6 m/s, 72° | - | - |
| 1788269597 | 29.44° C | 52% | 1019.3 hPa | 0 mm | 5.36 m/s, 12° | - | - |
| 1788269298 | 30.56° C | 52% | 1019.3 hPa | 0 mm | 6.26 m/s, 19° | - | - |
| 1788268997 | 30.56° C | 51% | 1019.3 hPa | 0 mm | 4.92 m/s, 0° | - | - |
| 1788268697 | 30.56° C | 51% | 1019.3 hPa | 0 mm | 5.81 m/s, 305° | - | - |
| 1788268397 | 30.56° C | 50% | 1019.3 hPa | 0 mm | 6.71 m/s, 8° | - | - |
| 1788268097 | 30.56° C | 51% | 1019.6 hPa | 0 mm | 7.6 m/s, 285° | - | - |
| 1788267797 | 31.11° C | 51% | 1019.6 hPa | 0 mm | 2.68 m/s, 226° | - | - |
| 1788267497 | 30° C | 53% | 1019.6 hPa | 0 mm | 6.71 m/s, 298° | - | - |
| 1788267197 | 30.56° C | 51% | 1019.6 hPa | 0 mm | 6.26 m/s, 0° | - | - |
| 1788266897 | 30.56° C | 50% | 1019.6 hPa | 0 mm | 3.13 m/s, 90° | - | - |
| 1788266596 | 30° C | 50% | 1019.6 hPa | 0 mm | 4.92 m/s, 310° | - | - |
| 1788266297 | 30.56° C | 48% | 1019.6 hPa | 0 mm | 1.79 m/s, 18° | - | - |
| 1788265996 | 30° C | 48% | 1020 hPa | 0 mm | 8.49 m/s, 8° | - | - |
| 1788265696 | 31.67° C | 44% | 1020 hPa | 0 mm | 1.79 m/s, 27° | - | - |
| 1788265396 | 30.56° C | 48% | 1020 hPa | 0 mm | 9.83 m/s, 13° | - | - |
| 1788265096 | 31.67° C | 50% | 1020 hPa | 0 mm | 4.02 m/s, 350° | - | - |
| 1788264799 | 31.67° C | 52% | 1020 hPa | 0 mm | 4.47 m/s, 48° | - | - |
| 1788264496 | 31.11° C | 52% | 1020 hPa | 0 mm | 2.68 m/s, 220° | - | - |
* Rain latest hour (hover to see other rain measurements)
** Current wind speed in m/s (hover to see current wind gust speed)